Delta Virtual Airport Information Service

Pittsburgh International Airport

ICAO: KPIT Country: United States
Latitude: 40.4915 Longitude: -80.2328
Latest Arrival : AAY1402 (KAUS-KPIT) Latest Departure : DAL2234 (1A) (KPIT-KMSP)


WX CaptureLIVE
Data provided by noaa.gov | Fetched at 08:46:12

METAR : KPIT 041431Z 33012KT 10SM BKN020 OVC032 02/M03 A3004 RMK AO2 T00171028

TAF : KPIT 041435Z 0415/0518 32010KT P6SM OVC020 FM041900 32013KT P6SM BKN035


Runway Data for KPIT
Data provided by openaviationdata.com

Runway ID Mag Var Hdg Length Elevation Surface ILS Freq ILS Id ILS Slope
10L -8 100° 10486 ft 1142 ft Asphalt 111.7 ILXB 3
10R -8 100° 11482 ft 1142 ft Concrete 108.9 IGUT 3
10C -8 100° 9693 ft 1142 ft Asphalt 110.95 IBGY 3
14 -8 144° 8098 ft 1142 ft Concrete -- -- --
28L -8 280° 11482 ft 1142 ft Concrete 108.9 IPFS 3
28R -8 280° 10486 ft 1142 ft Asphalt 111.7 IHFE 3
28C -8 280° 9693 ft 1142 ft Asphalt 110.95 IXXX 3
32 -8 324° 8098 ft 1142 ft Concrete 111.3 ITQW 3

Pittsburgh International Airport, United States
Use only for reference purposes



Not for navigational purposes.